Probability
0 0 0 0 0 0 0 0 0 0 0 0 0 0 0 0 0 0 0 0 0 0 0 0 0 0 0 0 0 0 0 0 0 0 0 0 0 0 0 0 0 0 0 0
0 0 0 0 0 0 0 0 0 0 0 0 0 0 0 0 0 0 0 0 0 0 0 0 0 0 0 0 0 0 0 0 0 0 0 0 0 0 0 0 0 0 0 0
0 0 0 0 0 0 0 0 0 0 0 0 0 0 0 0 0 0 0 0 0 0 0 0 0 0 0 0 0 0 0 0 0 0 0 0 0 0 0 0 0 0 0 0
0 0 0 0 0 0 0 0 0 0 0 0 0 0 0 0 0 0 0 0 0 0 0 0 0 0 0 0 0 0 0 0 0 0 0 0 0 0 0 0 0 0 0 0
0 0 0 0 0 0 0 0 0 0 0 0 0 0 0 0 0 0 0 0 0 0 0 0 0 0 0 0 0 0 0 0 0 0 0 0 0 0 0 0 0 0 0 0
0 0 0 0 0 0 0 0 0 0 0 0 0 0 0 0 0 0 0 0 0 0 0 0 0 0 0 0 0 0 0 0 0 0 0 0 0 0 0 0 0 0 0 0
0 0 0 0 0 0 0 0 0 0 0 0 0 0 0 0 0 0 0 0 0 0 0 0 0 0 0 0 0 0 0 0 0 0 0 0 0 0 0 0 0 0 0 0
0 0 0 0 0 0 0 0 0 0 0 0 0 0 0 0 0 0 0 0 0 0 0 0 0 0 0 0 0 0 0 0 0 0 0 0 0 0 0 0 0 0 0 0
0 0 0 0 0 0 0 0 0 0 0 0 0 0 0 0 0 0 0 0 0 0 0 0 0 0 0 0 0 0 0 0 0 0 0 0 0 0 0 0 0 0 0 0
0 0 0 0 0 0 0 0 0 0 0 0 0 0 0 0 0 0 0 0 0 0 0 0 0 0 0 0 0 0 0 0 0 0 0 0 0 0 0 0 0 0 0 0
0 0 0 0 0 0 0 0 0 0 0 0 0 0 0 0 0 0 0 0 0 0 0 0 0 0 0 0 0 0 0 0 0 0 0 0 0 0 0 0 0 0 0 0
0 0 0 0 0 0 0 0 0 0 0 0 0 0 0 0 0 0 0 0 0 0 0 0 0 0 0 0 0 0 0 0 0 0 0 0 0 0 0 0 0 0 0 0
0 0 0 0 0 0 0 0 0 0 0 0 0 0 0 0 0 0 0 0 0 0 0 0 0 0 0 0 0 0 0 0 0 0 0 0 0 0 0 0 0 0 0 0
0 0 0 0 0 0 0 0 0 0 0 0 0 0 0 0 0 0 0 0 0 0 0 0 0 0 0 0 0 0 0 0 0 0 0 0 0 0 0 0 0 0 0 0
0 0 0 0 0 0 0 0 0 0 0 0 0 0 0 0 0 0 0 0 0 0 0 0 0 0 0 0 0 0 0 0 0 0 0 0 0 0 0 0 0 0 0 0
0 0 0 0 0 0 0 0 0 0 0 0 0 0 0 0 0 0 0 0 0 0 0 0 0 0 0 0 0 0 0 0 0 0 0 0 0 0 0 0 0 0 0 0
0 0 0 0 0 0 0 0 0 0 0 0 0 0 0 0 0 0 0 0 0 0 0 0 0 0 0 0 0 0 0 0 0 0 0 0 0 0 0 0 0 0 0 0
0 0 0 0 0 0 0 0 0 0 0 0 0 0 0 0 0 0 0 0 0 0 0 0 0 0 0 0 0 0 0 0 0 0 0 0 0 0 0 0 0 0 0 0
0 0 0 0 0 0 0 0 0 0 0 0 0 0 0 0 0 0 0 0 0 0 0 0 0 0 0 0 0 0 0 0 0 0 0 0 0 0 0 0 0 0 0 0
0 0 0 0 0 0 0 0 0 0 0 0 0 0 0 0 0 0 0 0 0 0 0 0 0 0 0 0 0 0 0 0 0 0 0 0 0 0 0 0 0 0 0 0
0 0 0 0 0 0 0 0 0 0 0 0 0 0 0 0 0 0 0 0 0 0 0 0 0 0 0 0 0 0 0 0 0 0 0 0 0 0 0 0 0 0 0 0
0 0 0 0 0 0 0 0 0 0 0 0 0 0 0 0 0 0 0 0 0 0 0 0 0 0 0 0 0 0 0 0 0 0 0 0 0 0 0 0 0 0 0 0
0 0 0 0 0 0 0 0 0 0 0 0 0 0 0 0 0 0 0 0 0 0 0 0 0 0 0 0 0 0 0 0 0 0 0 0 0 0 0 0 0 0 0 0
0 0 0 0 0 0 0 0 0 0 0 0 0 0 0 0 0 0 0 0 0 0 0 0 0 0 0 0 0 0 0 0 0 0 0 0 0 0 0 0 0 0 0 0
0 0 0 0 0 0 0 0 0 0 0 0 0 0 0 0 0 0 0 0 0 0 0 0 0 0 0 0 0 0 0 0 0 0 0 0 0 0 0 0 0 0 0 0
0 0 0 0 0 0 0 0 0 0 0 0 0 0 0 0 0 0 0 0 0 0 0 0 0 0 0 0 0 0 0 0 0 0 0 0 0 0 0 0 0 0 0 0
Height
5684 5685 5685 5685 5685 5685 5685 5685 5686 5687 5686 5686 5687 5688 5690 5689 5689 5691 5693 5695 5697 5699 5701 5703 5705 5707 5708 5710 5711 5713 5714 5715 5715 5716 5716 5717 5717 5717 5718 5718 5718 5718 5719 5719
5678 5678 5678 5677 5677 5677 5677 5678 5679 5680 5679 5679 5680 5682 5683 5683 5683 5685 5686 5687 5689 5690 5692 5693 5695 5696 5698 5699 5701 5702 5703 5703 5704 5704 5704 5705 5705 5706 5706 5706 5706 5707 5707 5708
5670 5672 5671 5670 5670 5670 5671 5672 5673 5673 5673 5672 5673 5675 5677 5677 5677 5678 5679 5680 5681 5682 5683 5684 5685 5686 5687 5688 5689 5690 5690 5691 5691 5692 5692 5692 5692 5693 5694 5694 5694 5694 5695 5695
5663 5664 5663 5663 5663 5664 5665 5666 5666 5666 5666 5666 5667 5667 5672 5671 5671 5671 5673 5673 5674 5674 5674 5675 5675 5676 5676 5677 5677 5678 5678 5679 5679 5679 5679 5679 5680 5681 5681 5681 5682 5682 5681 5682
5657 5657 5657 5657 5657 5658 5659 5660 5660 5660 5660 5660 5661 5661 5665 5665 5664 5665 5665 5666 5666 5666 5665 5665 5665 5666 5666 5666 5666 5666 5666 5666 5666 5666 5666 5666 5666 5667 5667 5667 5668 5668 5668 5668
5651 5651 5650 5650 5651 5652 5653 5654 5654 5654 5654 5654 5655 5655 5657 5658 5658 5658 5659 5658 5658 5657 5657 5657 5656 5656 5655 5655 5654 5654 5653 5653 5653 5653 5652 5652 5653 5653 5653 5653 5654 5654 5654 5655
5645 5645 5644 5644 5645 5646 5646 5648 5648 5647 5647 5648 5649 5648 5651 5651 5652 5652 5652 5651 5650 5649 5649 5648 5647 5646 5645 5644 5643 5642 5641 5640 5639 5639 5639 5639 5639 5640 5640 5640 5640 5640 5641 5642
5639 5640 5639 5638 5639 5639 5640 5641 5642 5642 5641 5642 5642 5642 5646 5646 5645 5644 5644 5643 5642 5641 5640 5639 5638 5636 5635 5633 5631 5630 5628 5627 5626 5626 5625 5626 5626 5626 5627 5627 5627 5627 5628 5628
5634 5634 5634 5633 5632 5633 5634 5634 5635 5635 5635 5635 5636 5637 5639 5639 5638 5637 5636 5636 5634 5633 5632 5631 5629 5627 5625 5623 5621 5618 5616 5615 5613 5612 5612 5612 5613 5613 5614 5614 5614 5614 5614 5615
5629 5629 5629 5628 5628 5628 5629 5629 5629 5629 5628 5628 5630 5631 5632 5632 5631 5630 5629 5627 5626 5625 5623 5622 5620 5617 5615 5612 5610 5607 5605 5603 5601 5599 5599 5599 5600 5600 5601 5601 5601 5601 5601 5601
5623 5624 5624 5624 5623 5623 5624 5624 5623 5623 5623 5623 5623 5627 5625 5624 5623 5622 5621 5620 5618 5617 5615 5613 5611 5608 5605 5602 5599 5597 5594 5591 5589 5587 5586 5587 5587 5587 5588 5588 5588 5588 5589 5589
5618 5618 5618 5618 5618 5618 5618 5618 5619 5619 5619 5618 5617 5621 5618 5617 5615 5615 5614 5612 5611 5609 5607 5604 5601 5598 5596 5593 5590 5586 5583 5581 5578 5576 5575 5575 5575 5576 5576 5576 5577 5576 5577 5577
5612 5612 5612 5613 5615 5614 5613 5613 5613 5613 5613 5612 5612 5616 5612 5610 5608 5607 5606 5605 5603 5601 5599 5596 5593 5590 5587 5584 5580 5577 5574 5571 5569 5566 5565 5564 5565 5565 5566 5565 5565 5566 5566 5566
5606 5607 5608 5608 5608 5607 5608 5608 5608 5608 5607 5607 5607 5608 5607 5604 5602 5601 5600 5598 5596 5594 5592 5589 5586 5582 5579 5575 5572 5568 5565 5562 5559 5557 5556 5555 5555 5556 5556 5556 5555 5555 5556 5556
5601 5601 5602 5602 5602 5602 5602 5603 5603 5602 5602 5602 5602 5601 5600 5598 5596 5595 5593 5592 5590 5588 5585 5581 5578 5575 5571 5567 5564 5560 5557 5554 5551 5549 5548 5547 5547 5547 5547 5547 5546 5546 5546 5546
5595 5596 5597 5597 5597 5597 5598 5598 5598 5598 5597 5596 5596 5595 5594 5592 5591 5589 5587 5585 5583 5581 5577 5574 5571 5567 5564 5560 5557 5553 5550 5547 5544 5541 5540 5539 5539 5539 5538 5538 5538 5537 5537 5537
5591 5591 5592 5592 5592 5592 5594 5594 5593 5593 5592 5591 5590 5590 5588 5586 5585 5583 5581 5579 5577 5574 5571 5567 5564 5561 5557 5554 5550 5546 5543 5540 5537 5534 5533 5532 5531 5531 5530 5530 5529 5529 5529 5529
5586 5586 5586 5587 5588 5588 5591 5589 5588 5588 5587 5586 5585 5583 5582 5580 5579 5577 5575 5573 5570 5567 5564 5561 5557 5554 5550 5546 5543 5539 5536 5533 5530 5528 5526 5525 5524 5523 5523 5522 5522 5522 5522 5522
5582 5582 5582 5582 5582 5583 5585 5584 5583 5582 5582 5581 5579 5578 5576 5574 5573 5571 5569 5566 5564 5561 5557 5554 5551 5547 5543 5539 5536 5532 5530 5527 5524 5522 5520 5518 5517 5516 5516 5515 5515 5515 5514 5515
5577 5577 5578 5578 5577 5578 5580 5579 5577 5578 5577 5575 5574 5572 5570 5569 5568 5566 5563 5561 5557 5554 5551 5548 5544 5541 5537 5533 5529 5526 5524 5521 5519 5516 5514 5512 5511 5511 5510 5510 5509 5509 5509 5509
5573 5573 5573 5573 5572 5573 5574 5573 5573 5573 5572 5570 5568 5566 5564 5562 5561 5560 5557 5555 5552 5549 5546 5542 5539 5535 5531 5528 5524 5520 5518 5515 5513 5511 5509 5507 5506 5506 5505 5504 5504 5504 5504 5503
5568 5568 5568 5568 5568 5571 5568 5567 5567 5567 5565 5563 5562 5560 5558 5556 5554 5552 5550 5548 5546 5543 5540 5536 5533 5530 5526 5522 5518 5515 5512 5510 5508 5506 5505 5503 5502 5501 5500 5499 5498 5498 5498 5497
5563 5564 5563 5564 5566 5564 5562 5562 5561 5560 5559 5558 5556 5555 5552 5550 5548 5546 5544 5542 5540 5537 5534 5531 5528 5524 5521 5517 5514 5511 5508 5505 5503 5501 5500 5498 5497 5496 5495 5494 5494 5493 5493 5492
5559 5558 5558 5558 5559 5558 5557 5555 5555 5554 5553 5552 5550 5549 5547 5545 5543 5541 5539 5537 5535 5532 5529 5526 5523 5519 5516 5513 5510 5507 5504 5501 5499 5497 5495 5494 5493 5492 5491 5489 5489 5488 5488 5488
5553 5553 5552 5553 5553 5552 5551 5550 5549 5548 5547 5546 5545 5543 5542 5540 5538 5536 5534 5532 5530 5527 5524 5521 5518 5515 5512 5509 5506 5504 5501 5498 5496 5494 5492 5490 5488 5487 5486 5485 5484 5483 5483 5483
5548 5547 5547 5547 5547 5546 5546 5545 5544 5543 5542 5541 5540 5538 5536 5534 5533 5531 5529 5527 5525 5523 5520 5517 5514 5511 5508 5506 5503 5500 5497 5495 5493 5491 5488 5487 5485 5483 5481 5480 5479 5478 5478 5478
Wind_Speed
25 26 26 26 27 27 28 27 27 27 27 27 27 25 25 26 27 27 27 28 29 31 33 35 37 38 39 40 41 42 42 42 42 42 43 44 44 45 45 47 47 46 46 47
25 25 24 25 26 26 26 27 27 27 27 27 26 26 25 26 26 27 28 28 28 29 31 34 36 38 39 41 42 42 42 43 43 44 45 45 46 47 47 48 49 48 48 49
24 23 24 25 26 26 25 25 25 25 25 26 27 26 25 25 26 27 28 28 28 29 31 34 35 36 38 39 40 42 42 43 43 45 45 47 48 48 48 47 49 50 50 50
22 23 23 24 24 24 23 22 23 24 24 25 26 27 24 24 26 27 28 28 29 30 31 33 34 35 36 38 39 41 42 43 44 44 46 47 48 49 49 49 49 51 52 51
20 21 22 22 22 23 22 22 22 23 24 25 25 27 24 24 25 25 26 26 27 29 30 32 33 34 36 37 39 41 42 43 44 45 46 47 48 48 49 50 51 51 51 52
20 21 21 21 22 23 23 23 23 23 24 25 25 26 25 24 24 24 25 26 27 28 29 31 32 33 35 36 37 40 42 43 44 45 46 47 47 47 48 49 50 50 50 50
18 19 20 21 22 23 23 23 23 24 25 25 24 26 25 24 24 24 25 25 27 27 28 30 31 33 34 35 36 38 40 42 44 45 46 46 46 47 47 47 48 49 49 49
17 18 19 20 21 22 24 24 24 25 26 25 24 26 24 23 24 25 25 26 27 28 28 29 31 32 33 35 36 38 40 41 43 44 45 46 46 46 46 46 46 48 49 49
17 17 17 18 19 20 21 22 22 24 25 25 25 25 24 24 25 26 27 27 28 28 28 29 30 31 32 34 36 37 39 40 42 44 45 45 45 46 46 46 46 45 46 47
17 17 15 15 16 17 18 19 20 21 23 24 24 24 24 24 25 26 27 27 27 27 28 28 29 31 32 33 35 36 37 38 39 41 43 44 43 44 44 44 45 45 44 44
17 17 15 15 15 15 16 17 18 19 21 21 22 21 21 22 24 25 26 26 26 27 27 28 29 31 32 32 33 34 35 36 37 38 39 40 40 40 41 42 42 42 43 44
18 18 16 16 16 16 16 16 17 18 19 21 21 20 20 21 22 23 24 25 26 26 27 29 30 31 31 32 32 33 34 35 36 36 37 38 39 39 40 40 40 41 41 42
17 17 16 15 15 16 17 17 17 18 20 20 21 20 19 20 21 22 23 24 25 26 27 28 28 29 30 32 32 33 33 34 34 34 35 36 37 37 37 37 38 38 39 39
17 17 17 16 15 16 16 17 18 19 20 20 20 19 19 20 21 22 23 24 25 25 26 27 28 29 30 30 31 32 31 31 31 32 33 34 34 34 35 35 35 35 36 37
17 17 16 16 16 15 15 16 17 18 19 20 19 19 19 20 21 21 22 24 25 26 26 26 27 28 30 30 29 29 28 28 28 29 30 30 31 32 32 33 33 34 34 35
16 16 16 16 16 16 16 16 16 16 17 18 19 18 19 20 20 21 22 23 24 25 26 26 27 28 28 29 29 28 27 26 26 27 27 28 29 30 31 33 33 33 33 33
15 15 15 15 16 17 17 16 16 16 16 17 18 19 20 20 21 21 22 23 24 25 25 26 27 28 28 28 28 27 26 26 25 25 26 26 27 29 29 31 31 31 31 31
15 15 15 15 16 17 17 17 17 17 17 17 18 20 21 21 22 22 22 23 23 24 25 26 27 27 27 27 27 27 26 26 25 25 25 26 26 27 27 28 29 29 29 29
15 15 15 15 15 17 17 17 18 19 18 19 19 20 20 21 21 22 22 22 23 23 24 25 25 26 26 27 27 27 26 25 24 24 24 25 24 24 23 24 25 25 25 26
16 16 16 15 16 16 15 16 17 18 18 19 19 19 20 20 20 20 21 21 22 22 23 24 24 24 24 25 26 26 25 24 23 23 22 22 22 22 21 21 22 22 23 23
16 16 16 16 16 16 16 17 17 18 18 19 20 19 20 20 20 20 21 21 22 22 23 23 24 24 24 25 25 25 24 23 22 21 20 20 20 20 20 19 20 21 22 23
15 15 16 16 16 16 17 18 18 18 18 19 19 19 20 20 21 21 21 21 22 22 23 23 23 24 24 24 24 23 22 21 21 21 19 18 17 18 19 19 20 21 22 21
15 16 16 16 16 17 17 19 19 19 19 19 19 20 20 20 20 20 20 20 20 21 22 22 23 23 22 22 21 21 20 20 20 19 18 18 18 18 19 20 20 20 20 20
16 17 17 17 16 17 17 18 18 18 18 19 20 20 20 19 18 18 19 19 20 21 21 21 22 21 21 21 20 20 19 18 17 17 17 17 18 18 19 19 19 19 19 19
17 18 18 18 18 19 19 18 18 18 18 18 18 19 18 18 17 18 19 19 20 20 20 21 21 20 20 19 19 18 17 16 16 16 16 16 16 17 17 18 18 17 17 17
17 19 19 18 18 18 18 17 17 18 18 18 18 18 18 18 18 18 18 18 18 19 20 19 19 19 19 18 17 17 16 16 16 15 15 15 15 15 15 15 15 16 16 16
Wind_Direction
264 264 264 264 264 265 265 262 261 261 259 258 258 256 252 250 252 251 252 253 255 253 253 253 253 254 255 257 258 260 260 262 263 263 263 263 262 262 261 261 262 263 262 261
263 264 264 264 263 265 263 261 260 259 259 258 256 252 250 251 252 252 253 256 260 259 258 256 256 257 257 258 259 261 262 262 263 264 264 264 262 261 262 263 262 263 263 263
263 264 263 262 261 262 260 259 259 260 259 258 256 251 250 252 255 257 258 259 260 261 261 260 260 260 261 260 260 262 262 263 265 265 265 264 263 263 262 262 263 263 264 264
262 261 262 261 259 258 256 257 258 258 259 257 256 256 253 255 257 259 260 261 262 262 262 262 261 262 262 263 263 263 264 264 265 266 266 265 264 264 263 263 264 264 263 264
263 262 263 261 257 255 255 256 258 259 260 259 256 259 255 256 258 260 261 262 265 265 264 264 264 263 264 265 265 265 266 266 266 267 267 266 266 265 265 263 264 265 264 264
265 264 264 262 257 255 254 255 257 257 257 256 257 259 258 258 259 261 262 265 268 269 268 267 267 267 266 266 267 267 268 268 267 268 267 267 266 266 266 265 265 264 264 265
266 265 264 262 258 254 253 255 258 260 259 258 259 260 260 260 262 264 265 268 270 273 272 271 272 271 270 270 270 270 270 270 268 268 267 266 266 266 267 267 267 265 264 265
273 269 267 263 261 257 255 257 260 262 262 262 260 262 263 263 265 267 268 271 273 275 275 277 277 277 275 273 273 273 273 272 270 268 267 266 266 266 268 268 268 265 264 265
276 271 268 264 262 258 257 259 262 263 262 263 263 263 265 266 268 270 272 274 276 276 277 279 280 282 280 277 276 275 275 274 272 269 267 266 266 266 268 269 268 267 267 266
276 273 268 264 262 261 261 261 260 260 261 262 265 268 269 269 269 270 272 275 278 278 279 280 282 284 284 282 280 279 278 278 275 272 268 266 266 266 268 269 269 268 267 267
274 271 268 267 268 267 263 258 259 259 261 267 271 273 274 275 275 275 274 275 278 280 281 283 285 288 288 287 285 284 283 281 277 274 270 267 266 267 267 268 269 269 267 267
273 269 266 265 264 263 261 260 259 260 263 268 273 278 278 278 278 277 277 279 281 283 284 284 286 289 290 289 288 288 287 284 280 275 271 268 266 267 268 269 269 269 268 267
273 266 266 263 261 260 259 259 262 265 268 270 273 278 279 280 279 278 279 281 284 287 288 289 290 290 292 291 290 290 289 286 283 277 273 270 267 267 268 269 270 270 268 265
270 266 263 265 264 260 257 258 261 265 269 274 276 278 277 280 280 281 282 283 285 288 290 291 291 291 292 294 292 292 290 287 284 280 276 272 269 268 268 270 270 269 267 264
267 265 265 264 264 261 258 258 263 267 272 277 279 277 277 279 282 283 284 286 286 289 291 293 292 292 294 296 296 294 292 289 286 282 279 275 271 269 269 271 271 271 268 266
267 264 265 263 260 258 259 263 268 272 274 278 280 280 279 281 283 284 286 288 290 291 292 294 295 294 296 296 296 295 293 291 288 284 280 278 274 270 271 272 272 272 271 267
268 267 265 262 258 256 259 263 268 274 276 279 281 282 282 284 286 287 288 290 292 293 294 295 297 296 294 297 298 297 296 293 290 286 281 280 278 273 273 273 272 271 271 268
265 267 267 265 260 257 261 262 266 273 276 279 284 284 284 285 287 289 291 292 294 296 296 296 297 299 297 296 298 298 295 294 291 288 285 283 280 276 275 274 271 270 271 268
262 263 266 268 265 261 262 266 270 275 276 280 284 285 287 287 287 289 293 295 296 298 298 299 300 300 298 298 300 300 296 294 293 291 289 287 283 280 278 276 274 270 271 268
263 262 263 264 267 265 265 266 272 276 279 280 285 287 287 288 289 290 292 297 300 301 300 301 301 302 302 301 300 300 297 294 293 294 292 289 285 282 281 279 276 273 270 268
262 262 262 265 268 267 268 269 273 280 283 284 285 288 290 291 293 294 295 295 297 299 301 302 303 304 305 305 305 303 299 296 295 294 292 289 286 283 281 278 274 273 272 269
259 262 263 265 268 271 272 271 274 279 282 283 285 289 291 292 293 294 296 295 296 299 302 304 304 306 308 309 308 306 302 298 297 294 291 288 286 284 281 278 275 274 273 270
258 261 263 265 269 273 276 273 274 276 280 283 285 289 292 292 293 295 295 295 296 299 302 304 306 308 309 311 311 309 306 304 301 295 289 286 285 285 284 281 278 276 273 269
261 261 263 266 268 271 275 275 273 275 279 284 287 290 292 292 292 294 296 298 298 300 302 305 307 307 308 310 310 309 309 309 306 300 293 288 286 283 281 281 278 276 274 270
262 263 266 267 268 270 273 276 278 278 280 285 289 291 292 290 290 293 296 298 299 301 303 306 308 309 310 311 311 311 310 309 307 303 296 292 288 283 281 280 278 274 271 267
264 265 267 269 269 270 272 275 279 280 282 285 288 290 293 294 293 294 296 297 299 302 305 306 308 309 310 311 312 312 311 309 307 304 301 299 294 290 287 285 280 276 272 270